sat.trackr.live / text

‹ back to catalog

STARLINK-35070

NORAD 65680 · 2025-212E

PAYLOAD ACTIVE UNKNOWN

§ Identity

Operator
Country
US
Launch date
2025-09-21
Launch site
AFETR
Launch vehicle
Mass (kg)
RCS (m²)

Purposes: comms

External: N2YO · Heavens-Above · Gunter

§ Orbital elements

Epoch: 2026-09-19T10:56:59.632800Z

Period
94.01 min
Inclination
53.1602°
Eccentricity
0.0000164
Mean motion
15.31704350 rev/d
Perigee alt
470.6 km
Apogee alt
470.8 km
Semi-major
6,848.9 km
B*
3.9257e-4
RAAN
164.6833°
Arg perigee
137.0599°
Mean anomaly
223.0415°
Rev number
5,692

§ Raw data

STARLINK-350701 65680U 25212E   26262.45624575  .00011838  00000+0  39257-3 0  99922 65680  53.1602 164.6833 0000164 137.0599 223.0415 15.31704350 56928

JSON: /api/v1/satellites/65680 · /tle

For live sub-satellite position, see the globe view (requires WebGL).

§ Visibility from observer

Set your observer location to see the next 7 days of passes ≥ 10°. The values pass through the URL so the page stays shareable.

No JS? Fill the form by hand. The geolocation button needs JavaScript.